LiveATC.Net - Listen to live air traffic control over the Internet!

ICAO: KVGT  IATA: VGT   Airport: North Las Vegas Airport
City: Las Vegas   State/Province: Nevada
Country: United States   Continent: North America
KVGT METAR Weather: KVGT 232153Z 16007KT 10SM BKN110 28/M03 A3000 RMK AO2 SLP159 T02781028
KVGT Flight Activity (FlightAware)
KVGT Airport Info   (AirNav) (iFlightPlanner)
KVGT VFR Sectional Chart   (iFlightPlanner) 
KVGT IFR Low Chart   (iFlightPlanner) 
KVGT Tower
Feed Status: UP   Listeners: 1
Listen right in your browser - requires Flash (in browser, requires Flash)
Click here to listen with your own player (launches your MP3 player)
KVGT Tower Audio Archives
North Las Vegas Tower125.700


Unauthorized use prohibited. See Terms of Service

Find LiveATC Audio Streams

Airport/ARTCC Code

(e.g., 124.400, 128.75)
Site-wide search

Browse LiveATC Feeds
LiveATC Coverage Map
Top 50 LiveATC Feeds
Bad Weather Areas

Offer a LiveATC Feed
Press Inquiries

LiveATC on iPhone
LiveATC on Android

Windows Phone
Windows 8/10

LiveATC Mobile
(Mobile browser)

ATC Audio Archives
Interesting Recordings

LiveATC Forums

Home Page
Make a Donation
LiveATC Store

Terms of Use
Privacy Policy

Canadian Air Freqs


FAA Airport Status
Nat'l Airspace Status
Arrival Demand Charts

Server Software By: